• Em Portugal
  • Lista de países
  • Para 7 dias
  • Temperatura da água
  • Mapas de satélite
  • Mapa do tempo
  • Widgets de tempo
  • user-avatar
    Iniciar Sessão

    Previsão horária em Abrantes

    Hoje, 21 Outubro, Sábado

    Tempo Temperatura Precipitação Vento Pressão Humidade
    00:00 +20°C° 0,1 mm 1 m/s 759 mmHg 97%
    01:00 +19°C° 0,1 mm 2 m/s 759 mmHg 96%
    02:00 +18°C° 0,1 mm 2 m/s 759 mmHg 96%
    03:00 +18°C° 0 mm 2 m/s 760 mmHg 95%
    04:00 +18°C° 0 mm 2 m/s 760 mmHg 94%
    05:00 +17°C° 0 mm 2 m/s 760 mmHg 94%
    06:00 +18°C° 0 mm 2 m/s 761 mmHg 87%
    07:00 +18°C° 0 mm 3 m/s 761 mmHg 80%
    08:00 +19°C° 0 mm 3 m/s 762 mmHg 74%
    09:00 +20°C° 0 mm 4 m/s 762 mmHg 64%
    10:00 +21°C° 0 mm 4 m/s 761 mmHg 55%
    11:00 +22°C° 0 mm 4 m/s 761 mmHg 46%
    12:00 +22°C° 0 mm 4 m/s 761 mmHg 45%
    13:00 +23°C° 0 mm 5 m/s 761 mmHg 43%
    14:00 +23°C° 0 mm 5 m/s 761 mmHg 42%
    15:00 +21°C° 0 mm 5 m/s 761 mmHg 48%
    16:00 +19°C° 0 mm 4 m/s 761 mmHg 54%
    17:00 +18°C° 0 mm 4 m/s 761 mmHg 60%
    18:00 +17°C° 0 mm 4 m/s 762 mmHg 63%
    19:00 +16°C° 0 mm 3 m/s 762 mmHg 66%
    20:00 +14°C° 0 mm 3 m/s 763 mmHg 69%
    21:00 +14°C° 0 mm 3 m/s 762 mmHg 71%
    22:00 +13°C° 0 mm 3 m/s 762 mmHg 72%
    23:00 +14°C° 0 mm 2 m/s 762 mmHg 74%

    Amanhã, 22 Outubro, Domingo

    Tempo Temperatura Precipitação Vento Pressão Humidade
    00:00 +13°C° 0 mm 2 m/s 762 mmHg 75%
    01:00 +13°C° 0 mm 2 m/s 762 mmHg 76%
    02:00 +13°C° 0 mm 2 m/s 762 mmHg 77%
    03:00 +12°C° 0 mm 2 m/s 762 mmHg 77%
    04:00 +12°C° 0 mm 2 m/s 762 mmHg 77%
    05:00 +12°C° 0 mm 2 m/s 762 mmHg 77%
    06:00 +13°C° 0 mm 2 m/s 762 mmHg 70%
    07:00 +15°C° 0 mm 2 m/s 762 mmHg 63%
    08:00 +16°C° 0 mm 2 m/s 763 mmHg 56%
    09:00 +19°C° 0 mm 2 m/s 762 mmHg 48%
    10:00 +21°C° 0 mm 2 m/s 762 mmHg 40%
    11:00 +24°C° 0 mm 2 m/s 762 mmHg 32%
    12:00 +25°C° 0 mm 2 m/s 761 mmHg 31%
    13:00 +25°C° 0 mm 2 m/s 761 mmHg 29%
    14:00 +26°C° 0 mm 2 m/s 760 mmHg 27%
    15:00 +24°C° 0 mm 2 m/s 760 mmHg 35%
    16:00 +21°C° 0 mm 2 m/s 760 mmHg 42%
    17:00 +18°C° 0 mm 2 m/s 760 mmHg 49%
    18:00 +17°C° 0 mm 2 m/s 760 mmHg 54%
    19:00 +16°C° 0 mm 2 m/s 761 mmHg 58%
    20:00 +16°C° 0 mm 2 m/s 761 mmHg 62%
    21:00 +15°C° 0 mm 2 m/s 761 mmHg 62%
    22:00 +15°C° 0 mm 1 m/s 761 mmHg 62%
    23:00 +15°C° 0 mm 1 m/s 761 mmHg 62%

    Depois de amanhã, 23 Outubro, Segunda-feira

    Tempo Temperatura Precipitação Vento Pressão Humidade
    00:00 +15°C° 0 mm 1 m/s 760 mmHg 61%
    01:00 +14°C° 0 mm 1 m/s 760 mmHg 61%
    02:00 +14°C° 0 mm 1 m/s 760 mmHg 60%
    03:00 +14°C° 0 mm 1 m/s 760 mmHg 58%
    04:00 +14°C° 0 mm 1 m/s 760 mmHg 57%
    05:00 +14°C° 0 mm 1 m/s 759 mmHg 55%
    06:00 +16°C° 0 mm 1 m/s 760 mmHg 49%
    07:00 +18°C° 0 mm 1 m/s 760 mmHg 44%
    08:00 +20°C° 0 mm 1 m/s 760 mmHg 39%
    09:00 +21°C° 0 mm 2 m/s 760 mmHg 34%
    10:00 +25°C° 0 mm 2 m/s 760 mmHg 29%
    11:00 +27°C° 0 mm 2 m/s 760 mmHg 25%
    12:00 +28°C° 0 mm 2 m/s 759 mmHg 23%
    13:00 +28°C° 0 mm 2 m/s 759 mmHg 22%
    14:00 +29°C° 0 mm 2 m/s 758 mmHg 21%
    15:00 +27°C° 0 mm 2 m/s 758 mmHg 26%
    16:00 +24°C° 0 mm 2 m/s 758 mmHg 31%
    17:00 +22°C° 0 mm 1 m/s 758 mmHg 36%
    18:00 +21°C° 0 mm 1 m/s 758 mmHg 37%
    19:00 +21°C° 0 mm 1 m/s 758 mmHg 39%
    20:00 +20°C° 0 mm 1 m/s 759 mmHg 40%
    21:00 +19°C° 0 mm 1 m/s 759 mmHg 40%
    22:00 +19°C° 0 mm 1 m/s 758 mmHg 40%
    23:00 +19°C° 0 mm 1 m/s 758 mmHg 40%

    24 Outubro, Terça-feira

    Tempo Temperatura Precipitação Vento Pressão Humidade
    00:00 +19°C° 0 mm 1 m/s 758 mmHg 40%
    01:00 +17°C° 0 mm 2 m/s 758 mmHg 40%
    02:00 +17°C° 0 mm 2 m/s 758 mmHg 40%
    03:00 +17°C° 0 mm 2 m/s 758 mmHg 41%
    04:00 +16°C° 0 mm 2 m/s 758 mmHg 41%
    05:00 +16°C° 0 mm 2 m/s 758 mmHg 41%
    06:00 +18°C° 0 mm 2 m/s 758 mmHg 38%
    07:00 +20°C° 0 mm 2 m/s 758 mmHg 35%
    08:00 +21°C° 0 mm 2 m/s 758 mmHg 32%
    09:00 +24°C° 0 mm 2 m/s 758 mmHg 28%
    10:00 +27°C° 0 mm 2 m/s 758 mmHg 24%
    11:00 +29°C° 0 mm 2 m/s 758 mmHg 20%
    12:00 +29°C° 0 mm 2 m/s 757 mmHg 20%
    13:00 +30°C° 0 mm 2 m/s 757 mmHg 19%
    14:00 +30°C° 0 mm 1 m/s 757 mmHg 18%
    15:00 +28°C° 0 mm 1 m/s 757 mmHg 23%
    16:00 +26°C° 0 mm 1 m/s 757 mmHg 27%
    17:00 +23°C° 0 mm 1 m/s 757 mmHg 31%
    18:00 +22°C° 0 mm 1 m/s 757 mmHg 32%
    19:00 +22°C° 0 mm 1 m/s 757 mmHg 34%
    20:00 +21°C° 0 mm 1 m/s 757 mmHg 35%
    21:00 +20°C° 0 mm 1 m/s 757 mmHg 36%
    22:00 +20°C° 0 mm 1 m/s 757 mmHg 37%
    23:00 +19°C° 0 mm 1 m/s 757 mmHg 37%

    25 Outubro, Quarta-feira

    Tempo Temperatura Precipitação Vento Pressão Humidade
    00:00 +19°C° 0 mm 1 m/s 757 mmHg 38%
    01:00 +19°C° 0 mm 1 m/s 757 mmHg 39%
    02:00 +19°C° 0 mm 1 m/s 757 mmHg 40%
    03:00 +18°C° 0 mm 1 m/s 757 mmHg 41%
    04:00 +18°C° 0 mm 1 m/s 757 mmHg 42%
    05:00 +18°C° 0 mm 1 m/s 757 mmHg 43%
    06:00 +18°C° 0 mm 2 m/s 757 mmHg 41%
    07:00 +20°C° 0 mm 2 m/s 757 mmHg 39%
    08:00 +21°C° 0 mm 2 m/s 757 mmHg 37%
    09:00 +24°C° 0 mm 2 m/s 757 mmHg 34%
    10:00 +26°C° 0 mm 2 m/s 757 mmHg 32%
    11:00 +29°C° 0 mm 2 m/s 757 mmHg 29%
    12:00 +29°C° 0 mm 2 m/s 757 mmHg 27%
    13:00 +30°C° 0 mm 2 m/s 757 mmHg 26%
    14:00 +30°C° 0 mm 2 m/s 756 mmHg 25%
    15:00 +28°C° 0 mm 2 m/s 756 mmHg 30%
    16:00 +26°C° 0 mm 2 m/s 757 mmHg 36%
    17:00 +24°C° 0 mm 1 m/s 757 mmHg 41%
    18:00 +23°C° 0 mm 1 m/s 757 mmHg 45%
    19:00 +22°C° 0 mm 1 m/s 758 mmHg 50%
    20:00 +21°C° 0 mm 1 m/s 758 mmHg 54%
    21:00 +20°C° 0 mm 1 m/s 758 mmHg 57%
    22:00 +20°C° 0 mm 1 m/s 758 mmHg 61%
    23:00 +19°C° 0 mm 1 m/s 758 mmHg 64%

    26 Outubro, Quinta-feira

    Tempo Temperatura Precipitação Vento Pressão Humidade
    00:00 +19°C° 0 mm 1 m/s 758 mmHg 67%
    01:00 +18°C° 0 mm 1 m/s 758 mmHg 70%
    02:00 +18°C° 0 mm 1 m/s 758 mmHg 73%
    03:00 +17°C° 0 mm 2 m/s 759 mmHg 75%
    04:00 +17°C° 0 mm 2 m/s 759 mmHg 76%
    05:00 +16°C° 0 mm 2 m/s 759 mmHg 78%
    06:00 +18°C° 0 mm 2 m/s 760 mmHg 70%
    07:00 +20°C° 0 mm 2 m/s 760 mmHg 63%
    08:00 +21°C° 0 mm 2 m/s 760 mmHg 55%
    09:00 +25°C° 0 mm 2 m/s 760 mmHg 47%
    10:00 +27°C° 0 mm 3 m/s 760 mmHg 39%
    11:00 +29°C° 0 mm 3 m/s 760 mmHg 31%
    12:00 +30°C° 0 mm 3 m/s 760 mmHg 29%
    13:00 +31°C° 0 mm 2 m/s 759 mmHg 27%
    14:00 +31°C° 0 mm 2 m/s 759 mmHg 25%
    15:00 +29°C° 0 mm 2 m/s 759 mmHg 29%
    16:00 +27°C° 0 mm 2 m/s 759 mmHg 33%
    17:00 +25°C° 0 mm 1 m/s 760 mmHg 37%
    18:00 +24°C° 0 mm 2 m/s 760 mmHg 38%
    19:00 +23°C° 0 mm 2 m/s 760 mmHg 40%
    20:00 +21°C° 0 mm 2 m/s 761 mmHg 41%
    21:00 +21°C° 0 mm 2 m/s 761 mmHg 41%
    22:00 +20°C° 0 mm 2 m/s 761 mmHg 41%
    23:00 +20°C° 0 mm 2 m/s 761 mmHg 41%
    Mostrar mais